[[{"header":{"parameterUnit":"m.s-1","parameterCategory":1,"la1":30.2991,"la2":30.254,"lo1":-89.0895,"lo2":-89.0444,"dy":0.0017,"dx":0.0017,"nx":28,"ny":28,"refTime":"2025-07-07T21:00:00:Z","depth":0,"parameterNumber":2,"parameterNumberName":"U-component_of_WINDS"},"data":[0,0,0,0,0,0,0,0,0,0,0,0,0,0,0,0,0,0,0,0,0,0,0,0,0,0,0,0,0,0,0,0,0,0,0,0,0,0,0,0,0,0,0,0,0,0,0,0,0,0,0,0,0,0,0,0,0,0,3.3208,3.321,0,3.3369,3.3371,3.3372,3.3356,3.3353,3.3351,3.3348,3.3515,3.3521,3.3528,0,0,0,0,0,0,0,0,0,0,0,0,0,3.2887,3.2893,3.3208,3.321,3.3212,3.3368,3.3371,3.3373,3.3356,3.3353,3.335,3.3347,3.3512,3.352,3.3528,0,0,0,0,0,0,0,0,0,0,0,0,0,3.3035,3.2895,3.3208,3.3222,3.3225,3.3368,3.3371,3.3374,3.3357,3.3353,3.3349,3.3346,3.351,3.352,3.353,3.3669,0,0,3.3561,3.3565,0,0,0,0,0,0,0,0,3.3026,3.3047,3.3218,3.3222,3.3225,3.3338,3.3318,3.3473,3.3358,3.3307,3.3348,3.3344,3.3459,3.3473,3.3512,3.3676,3.3683,3.3562,3.3568,3.3572,3.3575,0,0,0,0,0,0,0,3.3016,3.304,3.3272,3.3221,3.3225,3.3221,3.3238,3.3348,3.3402,3.3311,3.331,3.3329,3.346,3.3502,3.3515,3.3686,3.3561,3.357,3.3577,3.3581,3.3971,3.3975,0,0,0,0,0,0,3.3002,3.3031,3.3267,3.3276,3.3114,3.323,3.3249,3.3306,3.3401,3.3412,3.3332,3.3328,3.3486,3.3504,3.3521,3.3689,3.3572,3.3582,3.3587,3.3966,3.3972,3.3976,0,0,0,0,0,0,3.2995,3.3023,3.326,3.3154,3.3183,3.3239,3.3304,3.3311,3.3353,3.3417,3.3427,3.3365,3.3484,3.3507,3.3631,3.3695,3.3586,3.3595,3.3961,3.3968,3.3974,3.4026,0,0,0,0,0,0,3.2986,3.3021,3.3074,3.3155,3.3189,3.3368,3.3308,3.3317,3.337,3.3366,3.345,3.3461,3.3483,3.3616,3.3642,3.3707,3.3603,3.3956,3.3964,3.3972,3.4019,3.4034,3.4046,0,0,0,0,0,3.2975,3.3084,3.3077,3.3106,3.3257,3.3371,3.3391,3.3414,3.3375,3.3429,3.347,3.3458,3.3683,3.3629,3.3658,3.3727,3.3952,3.3962,3.3971,3.4013,3.4031,3.4046,0,0,0,0,0,0,3.301,3.3095,3.3088,3.3227,3.3292,3.3368,3.3437,3.3432,3.351,3.3503,3.3528,3.3547,3.3673,3.3712,3.365,3.3865,3.3813,3.3828,3.3835,3.3852,3.3865,3.3853,3.3612,0,0,0,0,0,3.3034,3.3119,3.3189,3.3304,3.3337,3.3381,3.3432,3.3444,3.3512,3.354,3.3591,3.3658,3.3744,3.38,3.3883,3.4025,3.4042,3.4086,3.4099,3.411,3.4123,3.4199,3.4219,3.4008,3.4007,3.4007,0,0,3.3085,3.3141,3.3194,3.3312,3.3364,3.3452,3.3405,3.35,3.3565,3.3555,3.3675,3.3714,3.3791,3.3924,3.3986,3.3961,3.4185,3.4122,3.413,3.4138,3.4211,3.4231,3.4249,3.4014,3.4013,3.4012,0,0,3.3221,3.3272,3.3373,3.3426,3.3504,3.3533,3.3557,3.3634,3.3659,3.378,3.3774,3.3852,3.4,3.4054,3.4101,3.4256,3.4247,3.4282,3.4352,3.4426,3.4443,3.4458,3.4512,3.4531,3.4295,3.4295,3.4295,0,3.3274,3.3405,3.3426,3.3522,3.3573,3.3567,3.3668,3.3719,3.3821,3.3857,3.3828,3.4012,3.4063,3.4208,3.4245,3.4284,3.4312,3.4273,3.4439,3.4454,3.4468,3.452,3.454,3.4299,3.4299,3.4298,3.4298,0,3.3466,3.3557,3.3629,3.3726,3.3786,3.3884,3.392,3.3978,3.3984,3.4015,3.4138,3.4199,3.4293,3.4328,3.4336,3.4474,3.4456,3.4433,3.4381,3.4492,3.4541,3.4561,3.4304,3.4303,3.4302,3.4301,0,0,3.363,3.3736,3.3762,3.3805,3.389,3.3961,3.4059,3.415,3.4199,3.4269,3.4351,3.4475,3.4453,3.4507,3.452,3.4585,3.4702,3.4553,3.4555,3.4578,3.4856,3.4873,3.4896,3.4696,3.47,3.4703,3.4849,0,3.3774,3.3946,3.3967,3.4119,3.4203,3.4197,3.4282,3.4343,3.4375,3.445,3.4486,3.4573,3.4538,3.457,3.4634,3.4674,3.4758,3.4664,3.4772,3.4776,3.4752,3.4922,3.494,3.5075,3.4869,3.4872,3.4875,0,3.3966,3.4039,3.42,3.4272,3.4308,3.4384,3.4468,3.454,3.4609,3.4627,3.4686,3.4691,3.4791,3.4734,3.4872,3.4808,3.4853,3.4879,3.4885,3.4896,3.4832,3.4936,3.5119,3.5139,3.4905,3.4903,3.4901,0,3.4068,3.4208,3.4322,3.4359,3.4446,3.4499,3.4538,3.4603,3.4655,3.4729,3.4763,3.4848,3.4894,3.496,3.4987,3.4943,3.5123,3.5069,3.514,3.514,3.5179,3.5176,3.5371,3.5209,3.5209,3.5208,3.5208,0,3.4227,3.4325,3.4368,3.4439,3.4548,3.457,3.4678,3.4715,3.4772,3.4849,3.4849,3.4921,3.4953,3.503,3.5051,3.5162,3.5183,3.52,3.5205,3.52,3.5198,3.523,3.5221,3.5214,3.5212,3.5211,3.521,0,3.436,3.4393,3.4517,3.4588,3.4608,3.4685,3.4746,3.4814,3.4844,3.4941,3.4965,3.5012,3.5103,3.5136,3.5246,3.5261,3.5388,3.5385,3.5364,3.5365,3.5434,3.5427,3.5657,3.5687,3.5506,3.5508,3.5509,0,3.4459,3.4534,3.4613,3.4663,3.4704,3.4786,3.4839,3.4863,3.4919,3.5002,3.5059,3.5148,3.5221,3.5366,3.541,3.5494,3.5493,3.5567,3.5506,3.5498,3.5493,3.5488,3.5495,3.5579,3.5581,3.5582,3.5584,0,3.4631,3.4642,3.4719,3.48,3.4863,3.4929,3.4993,3.5035,3.5069,3.5131,3.5222,3.5279,3.539,3.5479,3.5564,3.5604,3.56,3.5602,3.5623,3.5619,3.5603,3.5611,3.5395,3.5597,3.5596,3.5595,3.5594,3.5594,3.4749,3.4815,3.488,3.4964,3.5014,3.5073,3.5139,3.5177,3.5253,3.5345,3.5355,3.5453,3.5518,3.5633,3.5676,3.5753,3.5733,3.5764,3.5771,3.5778,3.5783,3.5591,3.5769,3.5769,3.5769,3.5768,3.5768,0,3.492,3.4961,3.5038,3.5126,3.5192,3.518,3.525,3.5306,3.5392,3.5453,3.5524,3.5628,3.5714,3.5764,3.5849,3.5901,3.5901,3.5923,3.5919,3.5928,3.5796,3.5769,3.5921,3.5921,3.5921,3.5921,3.5921,3.5921,3.5016,3.5126,3.5146,3.528,3.532,3.5415,3.5456,3.551,3.5558,3.5674,3.5744,3.5776,3.5833,3.5922,3.5999,3.6012,3.6043,3.6066,3.6077,3.5953,3.5937,3.5922,3.5897,3.6073,3.6073,3.6202,3.6203,3.6204]},{"header":{"parameterUnit":"m.s-1","parameterCategory":1,"la1":30.2991,"la2":30.254,"lo1":-89.0895,"lo2":-89.0444,"dy":0.0017,"dx":0.0017,"nx":28,"ny":28,"refTime":"2025-07-07T21:00:00:Z","depth":0,"parameterNumber":3,"parameterNumberName":"V-component_of_WINDS"},"data":[0,0,0,0,0,0,0,0,0,0,0,0,0,0,0,0,0,0,0,0,0,0,0,0,0,0,0,0,0,0,0,0,0,0,0,0,0,0,0,0,0,0,0,0,0,0,0,0,0,0,0,0,0,0,0,0,0,0,-0.1252,-0.1252,0,-0.1296,-0.1296,-0.1297,-0.134,-0.134,-0.1341,-0.1341,-0.1385,-0.1385,-0.1386,0,0,0,0,0,0,0,0,0,0,0,0,0,-0.1204,-0.1204,-0.1252,-0.1252,-0.1253,-0.1296,-0.1296,-0.1297,-0.134,-0.134,-0.1341,-0.1342,-0.1384,-0.1385,-0.1386,0,0,0,0,0,0,0,0,0,0,0,0,0,-0.1234,-0.1205,-0.1252,-0.1279,-0.1282,-0.1296,-0.1296,-0.1297,-0.1339,-0.134,-0.1341,-0.1342,-0.1384,-0.1385,-0.1386,-0.1375,0,0,-0.1389,-0.1389,0,0,0,0,0,0,0,0,-0.1232,-0.1235,-0.1275,-0.1278,-0.1281,-0.1313,-0.1295,-0.1323,-0.1339,-0.1318,-0.1341,-0.1342,-0.136,-0.1363,-0.1369,-0.1377,-0.1379,-0.1389,-0.139,-0.139,-0.139,0,0,0,0,0,0,0,-0.123,-0.1234,-0.1269,-0.1275,-0.1279,-0.1289,-0.1294,-0.1301,-0.1334,-0.132,-0.1323,-0.1328,-0.1362,-0.1368,-0.1371,-0.138,-0.1389,-0.139,-0.139,-0.1391,-0.138,-0.1379,0,0,0,0,0,0,-0.1224,-0.1232,-0.1268,-0.1271,-0.1258,-0.1289,-0.1295,-0.1302,-0.1334,-0.1339,-0.1327,-0.1329,-0.1366,-0.137,-0.1372,-0.1361,-0.139,-0.1391,-0.1391,-0.1381,-0.138,-0.1379,0,0,0,0,0,0,-0.1223,-0.1227,-0.1266,-0.1252,-0.1258,-0.1289,-0.1297,-0.1302,-0.1309,-0.1339,-0.1345,-0.1327,-0.1367,-0.1371,-0.1374,-0.1363,-0.1391,-0.1392,-0.1382,-0.1381,-0.138,-0.1339,0,0,0,0,0,0,-0.1221,-0.1226,-0.1222,-0.1252,-0.1258,-0.1267,-0.1296,-0.1303,-0.1311,-0.1314,-0.1341,-0.1347,-0.1368,-0.1373,-0.1375,-0.1365,-0.1393,-0.1383,-0.1381,-0.138,-0.1341,-0.1336,-0.1332,0,0,0,0,0,-0.1219,-0.1209,-0.1222,-0.1226,-0.1255,-0.1266,-0.127,-0.1296,-0.131,-0.1306,-0.1325,-0.1346,-0.1364,-0.1372,-0.1376,-0.1366,-0.1384,-0.1382,-0.138,-0.1343,-0.1337,-0.1332,0,0,0,0,0,0,-0.1176,-0.1213,-0.1228,-0.1227,-0.1243,-0.1274,-0.127,-0.1289,-0.1301,-0.1304,-0.1335,-0.1341,-0.134,-0.1354,-0.1362,-0.1357,-0.1377,-0.1376,-0.1348,-0.1342,-0.1338,-0.1334,-0.1394,0,0,0,0,0,-0.1167,-0.1174,-0.1205,-0.1201,-0.1209,-0.1238,-0.1244,-0.1262,-0.128,-0.1287,-0.1307,-0.1323,-0.1333,-0.1339,-0.1349,-0.1344,-0.135,-0.1339,-0.1334,-0.133,-0.1328,-0.1326,-0.1321,-0.1373,-0.1373,-0.1373,0,0,-0.1147,-0.1168,-0.117,-0.1193,-0.1208,-0.1214,-0.1243,-0.1249,-0.1253,-0.1288,-0.1292,-0.1307,-0.1328,-0.1326,-0.1326,-0.1337,-0.1315,-0.1328,-0.1324,-0.1324,-0.1323,-0.1318,-0.1314,-0.1372,-0.1372,-0.1372,0,0,-0.1113,-0.113,-0.1129,-0.1143,-0.1166,-0.1185,-0.1185,-0.1213,-0.1224,-0.1229,-0.1255,-0.1261,-0.1277,-0.1291,-0.1299,-0.1272,-0.1291,-0.1275,-0.125,-0.1247,-0.1243,-0.124,-0.1229,-0.1225,-0.1273,-0.1273,-0.1273,0,-0.1086,-0.1096,-0.1125,-0.1129,-0.1138,-0.1171,-0.1169,-0.1182,-0.1206,-0.1211,-0.1224,-0.1244,-0.1261,-0.1262,-0.1256,-0.1262,-0.1262,-0.1271,-0.1242,-0.1238,-0.1235,-0.1225,-0.1221,-0.1271,-0.1271,-0.1271,-0.1271,0,-0.1061,-0.1067,-0.1063,-0.1087,-0.1096,-0.1096,-0.1125,-0.113,-0.1148,-0.1166,-0.1171,-0.1191,-0.1206,-0.1209,-0.1226,-0.1213,-0.1219,-0.1236,-0.1257,-0.1228,-0.1219,-0.1215,-0.1268,-0.1268,-0.1269,-0.127,0,0,-0.1,-0.104,-0.1038,-0.1049,-0.1077,-0.1082,-0.1085,-0.11,-0.1104,-0.112,-0.1122,-0.1135,-0.1151,-0.1161,-0.1181,-0.1179,-0.1154,-0.1196,-0.1197,-0.1186,-0.114,-0.1126,-0.1121,-0.1168,-0.1167,-0.1167,-0.1138,0,-0.097,-0.0977,-0.1003,-0.1001,-0.1008,-0.104,-0.1042,-0.1059,-0.1076,-0.1084,-0.1103,-0.1111,-0.1132,-0.1139,-0.1138,-0.1157,-0.1145,-0.116,-0.1169,-0.1169,-0.1161,-0.1117,-0.1102,-0.1074,-0.1135,-0.1135,-0.1134,0,-0.0936,-0.095,-0.0949,-0.0977,-0.0981,-0.0982,-0.0998,-0.1006,-0.1026,-0.1038,-0.105,-0.1072,-0.1076,-0.1096,-0.1102,-0.1111,-0.1117,-0.1127,-0.1126,-0.1127,-0.1149,-0.1115,-0.1066,-0.1061,-0.1129,-0.113,-0.113,0,-0.089,-0.091,-0.0912,-0.092,-0.0953,-0.0953,-0.0966,-0.0987,-0.0995,-0.1009,-0.1014,-0.1029,-0.1036,-0.1047,-0.1072,-0.1085,-0.1074,-0.1097,-0.1084,-0.1083,-0.1079,-0.1078,-0.1028,-0.1085,-0.1085,-0.1085,-0.1085,0,-0.0854,-0.0851,-0.0891,-0.0892,-0.0891,-0.0921,-0.0919,-0.0936,-0.0954,-0.0958,-0.0987,-0.0991,-0.1025,-0.1032,-0.1052,-0.1052,-0.1056,-0.1066,-0.1071,-0.1062,-0.1061,-0.1065,-0.1067,-0.1084,-0.1084,-0.1084,-0.1084,0,-0.0801,-0.0828,-0.0832,-0.0863,-0.0871,-0.0868,-0.0895,-0.0897,-0.0916,-0.0921,-0.0924,-0.0955,-0.0965,-0.0991,-0.1008,-0.1022,-0.1016,-0.1027,-0.101,-0.1012,-0.0998,-0.0998,-0.0947,-0.0942,-0.1003,-0.1002,-0.1002,0,-0.0775,-0.0774,-0.0806,-0.0811,-0.0823,-0.0831,-0.084,-0.087,-0.0877,-0.09,-0.0899,-0.0912,-0.0923,-0.0938,-0.0961,-0.0974,-0.0984,-0.0965,-0.0986,-0.0977,-0.0982,-0.0981,-0.0981,-0.096,-0.0959,-0.0958,-0.0958,0,-0.0726,-0.0739,-0.075,-0.0766,-0.0775,-0.0788,-0.0803,-0.0806,-0.084,-0.0847,-0.0858,-0.0866,-0.0884,-0.0896,-0.0912,-0.0926,-0.0947,-0.0952,-0.0949,-0.0939,-0.0929,-0.0933,-0.0996,-0.0952,-0.0953,-0.0953,-0.0953,-0.0954,-0.0685,-0.0686,-0.0708,-0.0719,-0.0733,-0.0747,-0.075,-0.0771,-0.078,-0.0797,-0.0815,-0.0824,-0.0844,-0.0869,-0.0881,-0.0888,-0.0899,-0.0896,-0.0895,-0.0893,-0.0888,-0.0929,-0.0891,-0.0892,-0.0892,-0.0892,-0.0892,0,-0.0636,-0.0652,-0.0662,-0.0682,-0.0691,-0.0712,-0.0729,-0.0735,-0.0742,-0.076,-0.0771,-0.0783,-0.0795,-0.082,-0.0834,-0.0834,-0.0844,-0.0837,-0.0836,-0.0839,-0.0878,-0.0879,-0.0828,-0.0828,-0.0828,-0.0828,-0.0828,-0.0828,-0.0611,-0.0613,-0.0629,-0.0638,-0.0655,-0.0664,-0.0672,-0.0685,-0.0699,-0.0711,-0.0721,-0.0738,-0.0758,-0.0774,-0.0785,-0.0792,-0.0795,-0.0784,-0.0794,-0.083,-0.0836,-0.0842,-0.0842,-0.0785,-0.0785,-0.0754,-0.0753,-0.0753]}]]